METAR LSZS 301720Z AUTO VRB02KT CAVOK 06/01 Q1016=
Diese Daten sind ohne Gewähr und dürfen nicht für die Flugvorbereitung verwendet werden.
Information contained in this website shall not be used for flight operation purposes.